Regional Weather Roundup
Issued by NWS

Home | Current Version | Previous Version | Graphics & Text | Print | Product List | Glossary On
Versions: 1 2 3 4 5 6 7 8 9 10 11 12 13 14 15 16 17 18 19 20 21 22 23 24 25 26 27
000
ASUS45 KBOU 201407
RWRCO

WEATHER ROUNDUP FOR COLORADO
NATIONAL WEATHER SERVICE DENVER/BOULDER CO
800 AM MDT FRI OCT 20 2017

NOTE: "FAIR" INDICATES FEW OR NO CLOUDS BELOW 12000 FEET WITH NO
SIGNIFICANT WEATHER AND/OR OBSTRUCTIONS TO VISIBILITY.

COZ001>005-013-030-031-201500-
...NORTHWEST COLORADO...

CITY           SKY/WX    TMP DP  RH WIND       PRES   REMARKS
CRAIG          CLOUDY    38  33  82 CALM      29.82F
HAYDEN         CLOUDY    47  31  53 E10       29.85F
MEEKER         FAIR      46  35  65 NE5       29.84F
RABBIT EARS PA PTSUNNY   37  32  81 SW10G26   30.02F
STEAMBOAT SPGS CLOUDY    36  30  79 CALM      29.86F
WALDEN         NOT AVBL
$$

COZ006>008-011-201500-
...WEST CENTRAL VALLEYS...

CITY           SKY/WX    TMP DP  RH WIND       PRES   REMARKS
GRAND JUNCTION FAIR      56  35  45 SE13      29.80S
MONTROSE       FAIR      47  32  56 VRB3      29.90F
EAGLE          MOCLDY    37  29  72 CALM      29.94F
RIFLE          FAIR      47  34  60 CALM      29.84S
DELTA          FAIR      50  33  51 N7        29.87S
NUCLA          FAIR      54  32  43 SE5       29.94F
$$

COZ017>023-064>068-201500-
...SOUTHWEST COLORADO...

CITY           SKY/WX    TMP DP  RH WIND       PRES   REMARKS
DURANGO        FAIR      38  33  82 NE5       30.02S
CORTEZ         FAIR      42  35  76 N5        29.95F
PAGOSA SPRINGS FAIR      39  37  93 CALM      30.07R
TELLURIDE      FAIR      48  31  51 SE10G17   30.06S
WOLF CREEK PAS HVY SNOW  30  30 100 SW15G25   30.22F VSB<1/4 WCI  19
$$

COZ009-010-012-014-032>034-037-058>063-201500-
...CENTRAL COLORADO...

CITY           SKY/WX    TMP DP  RH WIND       PRES   REMARKS
ASPEN          MOCLDY    41  30  65 VRB5      29.93F
BUENA VISTA    FAIR      35  26  70 N3        29.99F
COPPER MTN     FAIR      37  27  65 CALM      30.12F
BERTHOUD PASS  FAIR      30  21  69 NW29G35   30.11F WCI  15
COTTONWOOD PAS FAIR      46  30  53 CALM      30.05F
GUNNISON       FAIR      30  24  78 CALM      30.03F
KREMMLING      FAIR      30  27  86 SE3       29.96F
LEADVILLE      FAIR      29  23  78 VRB3      30.03F
SALIDA         FAIR      41  26  54 N3        30.04F
SUNLIGHT       FAIR      36  28  75 SW16G30   30.07F
WILKERSON PASS FAIR      34  23  64 SW15G22   30.12R WCI  24
$$

COZ069>075-201500-
...SAN LUIS VALLEY/SANGRE DE CRISTO MOUNTAINS...

CITY           SKY/WX    TMP DP  RH WIND       PRES   REMARKS
ALAMOSA        FAIR      34  31  88 SE6       30.01F WCI  29
DEL NORTE      FAIR      41  32  71 CALM      30.03S
LA VETA PASS   FAIR      39  32  75 S17G32    30.18S
SAGUACHE       FAIR      32  23  69 CALM      30.03S
$$

COZ035-036-038>040-201500-
...NORTHERN COLORADO FRONT RANGE...

CITY           SKY/WX    TMP DP  RH WIND       PRES   REMARKS
DENVER INTL AP FAIR      53  27  36 SW13      29.76F
DMNS CITY PARK   N/A     53  26  35 SE12      29.77S
AURORA         PTCLDY    50  27  41 SW8       29.79S
FRONT RANGE AP PTCLDY    54  28  37 S9G17     29.77F
ERIE MUNI ARPT FAIR      40  34  77 N5        29.80S
BOULDER MUN AP FAIR      46  34  61 W3        29.74F
CENTENNIAL     FAIR      49  28  44 S6        29.80S
BROOMFIELD     NOT AVBL
FORT COLLINS   FAIR      40  34  79 CALM      29.75F
LONGMONT       FAIR      44  34  67 SW3       29.76F
$$

COZ041-046-047-076>085-087-088-201500-
...PIKES PEAK/PALMER DIVIDE AND SOUTHERN FOOTHILLS...

CITY           SKY/WX    TMP DP  RH WIND       PRES   REMARKS
COLO. SPRINGS  FAIR      55  29  36 W6        29.83S
A. F. ACADEMY  FAIR      61  26  26 E5        29.84S
SCHRIEVER AFB  FAIR      53  31  43 CALM      29.83S
CHEYENNE MTN   MOCLDY    58  24  26 CALM      29.81F
ELLICOTT       FAIR     N/A N/A N/A NE6       29.81S
FALCON         FAIR      55  26  32 NW10G18   29.87S
FORT CARSON    CLEAR     48  32  53 NW5       29.80S
LIMON          FOG       33  33 100 CALM      29.79S VSB 1/4
MONUMENT HILL  FAIR      46  27  46 SW9       29.88S
CANON CITY     FAIR      54  32  43 W13       29.81S
WALSENBURG     FAIR      61  37  41 W16G23    29.87F
TRINIDAD       FAIR      48  36  63 N7        29.86F
$$

COZ042>045-048>051-090-091-201500-
...NORTHEAST COLORADO...

CITY           SKY/WX    TMP DP  RH WIND       PRES   REMARKS
GREELEY ARPT   FAIR      35  32  88 CALM      29.75F
AKRON          FAIR      47  37  68 W10       29.72S
BURLINGTON     FAIR      53  51  93 S14       29.74F
WRAY           NOT AVBL
YUMA           NOT AVBL
STERLING       NOT AVBL
HOLYOKE        FAIR      46  43  87 S8        29.73R
FORT MORGAN    FAIR      38  34  87 W8        29.74S
$$

COZ086-089-092>099-201500-
...SOUTHEAST COLORADO...

CITY           SKY/WX    TMP DP  RH WIND       PRES   REMARKS
PUEBLO         FAIR      41  34  76 W5        29.77F
LA JUNTA       FAIR      47  36  65 W7        29.76F
LAMAR          FAIR      51  45  79 S5        29.74F
SPRINGFIELD    NOT AVBL
$$




USA.gov is the U.S. government's official web portal to all federal, state and local government web resources and services.